Flag for U.S.A. Weather past 2 weeks in Medford, Oregon, U.S.A.

Now
40 °F

Mostly cloudy.


Feels Like: 40 °F
Forecast: 37 / 44 °F
Wind: No wind

Location: Rogue Valley International Airport

Current Time: Dec 25, 2014 at 5:46:48 AM

Latest Report: Dec 25, 2014 at 4:53 AM


Visibility: 10 mi

Pressure: 30.21 "Hg

Humidity: 86%

Dew point: 36 °F

Location of MedfordLocation

Historic Weather in Medford — Graph

°F

Medford temperature yesterday

Maximum temperature yesterday: 51 °F (at 12:53 AM)
Minimum temperature yesterday: 39 °F (at 9:53 PM)
Average temperature yesterday: 45 °F

Past Weeks' High & Low Weather Summary

 TemperatureHumidityPressure
High64 °F (Dec 10, 12:53 PM)100% (Dec 10, 4:58 AM)30.36 "Hg (Dec 10, 4:58 AM)
Low33 °F (Dec 14, 2:00 AM)47% (Dec 10, 12:53 PM)29.18 "Hg (Dec 11, 4:53 AM)
Average48 °F82%29.96 "Hg
* Reported Dec 10 4:03 AM — Dec 25 4:53 AM, Medford, Weather by CustomWeather, © 2014

Note: Actual official high and low records may vary slightly from our data, if they occured in-between our weather recording intervals... More about our weather records

Advertising

Medford weather history for previous 24 hours

 ConditionsComfort  
Time TempWeatherWind HumidityBarometerVisibility
4:53 AM
Dec 25
40 °FMostly cloudy.No wind86%30.21 "Hg10 mi
3:53 AM39 °FMostly cloudy.No wind89%30.21 "Hg10 mi
2:53 AM40 °FLight rain. Mostly cloudy.3 mph83%30.21 "Hg10 mi
1:53 AM39 °FPartly cloudy.6 mph82%30.19 "Hg10 mi
12:53 AM40 °FPartly cloudy.3 mph80%30.19 "Hg10 mi
11:53 PM
Dec 24
40 °FOvercast.No wind83%30.19 "Hg10 mi
10:53 PM40 °FMostly cloudy.No wind83%30.19 "Hg10 mi
9:53 PM39 °FPassing clouds.3 mph86%30.16 "Hg10 mi
8:53 PM41 °FOvercast.No wind82%30.14 "Hg10 mi
7:53 PM40 °FLight rain. Passing clouds.6 mph83%30.12 "Hg10 mi
6:53 PM41 °FMostly cloudy.No wind80%30.11 "Hg10 mi
5:53 PM42 °FOvercast.6 mph76%30.09 "Hg10 mi
4:53 PM43 °FOvercast.6 mph74%30.07 "Hg10 mi
3:53 PM43 °FBroken clouds.9 mph82%30.07 "Hg10 mi
2:53 PM44 °FLight rain. Mostly cloudy.9 mph79%30.03 "Hg10 mi
1:53 PM43 °FMostly cloudy.6 mph79%29.99 "Hg10 mi
12:53 PM42 °FMostly cloudy.9 mph82%29.96 "Hg10 mi
11:53 AM42 °FLight rain. Overcast.10 mph82%29.93 "Hg10 mi
11:01 AM44 °FRain. Overcast.7 mph82%29.91 "Hg4 mi
9:53 AM46 °FHeavy rain. Fog.13 mph86%29.85 "Hg3 mi
8:53 AM49 °FLight rain. Mostly cloudy.9 mph93%29.78 "Hg10 mi
7:53 AM48 °FLight rain. Fog.5 mph96%29.81 "Hg6 mi
6:53 AM49 °FOvercast.5 mph90%29.87 "Hg10 mi
5:53 AM50 °FOvercast.3 mph83%29.91 "Hg10 mi
Weather by CustomWeather, © 2014

See weather overviewHow to use our weather pages